Wetterdaten: Sonntag, 09.04.2017
Datum Zeit Temp. A. Feuchte A. Luftdruck Regen Wind Richtung Richtung Sonnenschein Solar
09.04.2017 00:02 9,6 C 70 % 1022,8 hPa 0,0 l/m 9,7 km/h (2 Bft) O-NO22.5 70 0 min 0 W/m
09.04.2017 00:07 9,8 C 69 % 1022,8 hPa 0,0 l/m 11,8 km/h (2 Bft) O22.5 90 0 min 0 W/m
09.04.2017 00:12 10,0 C 68 % 1022,8 hPa 0,0 l/m 12,0 km/h (2 Bft) O22.5 100 0 min 0 W/m
09.04.2017 00:17 10,0 C 68 % 1022,8 hPa 0,0 l/m 12,6 km/h (3 Bft) O45 90 0 min 0 W/m
09.04.2017 00:22 10,1 C 67 % 1022,8 hPa 0,0 l/m 13,0 km/h (3 Bft) O45 95 0 min 0 W/m
09.04.2017 00:27 10,2 C 67 % 1022,8 hPa 0,0 l/m 11,1 km/h (2 Bft) O67.5 90 0 min 0 W/m
09.04.2017 00:32 10,0 C 67 % 1022,8 hPa 0,0 l/m 11,1 km/h (2 Bft) O67.5 90 0 min 0 W/m
09.04.2017 00:37 10,1 C 67 % 1022,8 hPa 0,0 l/m 10,8 km/h (2 Bft) O45 90 0 min 0 W/m
09.04.2017 00:42 10,0 C 67 % 1022,8 hPa 0,0 l/m 15,8 km/h (3 Bft) O67.5 90 0 min 0 W/m
09.04.2017 00:47 10,1 C 67 % 1022,8 hPa 0,0 l/m 14,2 km/h (3 Bft) O45 80 0 min 0 W/m
09.04.2017 00:52 10,1 C 66 % 1022,8 hPa 0,0 l/m 11,0 km/h (2 Bft) O-NO22.5 60 0 min 0 W/m
09.04.2017 00:57 10,1 C 66 % 1022,8 hPa 0,0 l/m 0,4 km/h (0 Bft) O-NO 60 0 min 0 W/m
09.04.2017 01:02 9,9 C 67 % 1022,8 hPa 0,0 l/m 3,8 km/h (1 Bft) O-NO 60 0 min 0 W/m
09.04.2017 01:07 9,7 C 67 % 1022,8 hPa 0,0 l/m 11,4 km/h (2 Bft) NO22.5 45 0 min 0 W/m
09.04.2017 01:12 9,6 C 68 % 1022,8 hPa 0,0 l/m 14,4 km/h (3 Bft) NO 40 0 min 0 W/m
09.04.2017 01:17 9,6 C 68 % 1022,8 hPa 0,0 l/m 5,4 km/h (2 Bft) NO 40 0 min 0 W/m
09.04.2017 01:22 9,4 C 68 % 1022,8 hPa 0,0 l/m 5,3 km/h (1 Bft) N-NO 25 0 min 0 W/m
09.04.2017 01:27 9,2 C 69 % 1022,8 hPa 0,0 l/m 5,2 km/h (1 Bft) N-NO 25 0 min 0 W/m
09.04.2017 01:32 9,2 C 69 % 1022,8 hPa 0,0 l/m 9,5 km/h (2 Bft) NO22.5 40 0 min 0 W/m
09.04.2017 01:37 8,9 C 69 % 1022,8 hPa 0,0 l/m 10,1 km/h (2 Bft) NO22.5 55 0 min 0 W/m
09.04.2017 01:42 8,7 C 70 % 1022,8 hPa 0,0 l/m 7,2 km/h (2 Bft) NO 40 0 min 0 W/m
09.04.2017 01:47 8,5 C 70 % 1022,8 hPa 0,0 l/m 8,9 km/h (2 Bft) NO 45 0 min 0 W/m
09.04.2017 01:52 8,6 C 71 % 1022,8 hPa 0,0 l/m 6,3 km/h (2 Bft) O-NO22.5 60 0 min 0 W/m
09.04.2017 01:57 8,5 C 71 % 1022,8 hPa 0,0 l/m 5,7 km/h (2 Bft) O-NO 65 0 min 0 W/m
09.04.2017 02:02 8,6 C 71 % 1022,8 hPa 0,0 l/m 7,0 km/h (2 Bft) NO45 45 0 min 0 W/m
09.04.2017 02:07 8,4 C 71 % 1022,8 hPa 0,0 l/m 0,0 km/h (0 Bft) NO 50 0 min 0 W/m
09.04.2017 02:12 8,2 C 71 % 1022,8 hPa 0,0 l/m 0,1 km/h (0 Bft) O-NO 60 0 min 0 W/m
09.04.2017 02:17 8,0 C 71 % 1022,8 hPa 0,0 l/m 0,0 km/h (0 Bft) O-NO 60 0 min 0 W/m
09.04.2017 02:22 7,9 C 71 % 1022,8 hPa 0,0 l/m 0,0 km/h (0 Bft) O-NO 60 0 min 0 W/m
09.04.2017 02:27 7,6 C 71 % 1022,9 hPa 0,0 l/m 2,4 km/h (1 Bft) O-NO 60 0 min 0 W/m
09.04.2017 02:32 7,4 C 71 % 1022,9 hPa 0,0 l/m 3,2 km/h (1 Bft) O-NO 60 0 min 0 W/m
09.04.2017 02:37 7,2 C 72 % 1022,9 hPa 0,0 l/m 0,0 km/h (0 Bft) O-NO 60 0 min 0 W/m
09.04.2017 02:42 7,1 C 73 % 1022,9 hPa 0,0 l/m 0,0 km/h (0 Bft) O-NO 60 0 min 0 W/m
09.04.2017 02:47 6,8 C 73 % 1022,9 hPa 0,0 l/m 0,0 km/h (0 Bft) O-NO 60 0 min 0 W/m
09.04.2017 02:52 6,6 C 73 % 1022,9 hPa 0,0 l/m 0,0 km/h (0 Bft) O-NO 60 0 min 0 W/m
09.04.2017 02:57 6,4 C 73 % 1022,9 hPa 0,0 l/m 0,0 km/h (0 Bft) O-NO 60 0 min 0 W/m
09.04.2017 03:03 6,5 C 74 % 1022,9 hPa 0,0 l/m 0,0 km/h (0 Bft) O-NO 60 0 min 0 W/m
09.04.2017 03:08 6,4 C 74 % 1022,9 hPa 0,0 l/m 0,0 km/h (0 Bft) O-NO 60 0 min 0 W/m
09.04.2017 03:13 6,3 C 74 % 1022,9 hPa 0,0 l/m 0,0 km/h (0 Bft) O-NO 60 0 min 0 W/m
09.04.2017 03:18 6,2 C 74 % 1022,9 hPa 0,0 l/m 0,0 km/h (0 Bft) O-NO 60 0 min 0 W/m
09.04.2017 03:23 6,0 C 75 % 1021,9 hPa 0,0 l/m 0,0 km/h (0 Bft) O-NO 60 0 min 0 W/m
09.04.2017 03:28 6,0 C 75 % 1021,9 hPa 0,0 l/m 0,0 km/h (0 Bft) O-NO 60 0 min 0 W/m
09.04.2017 03:33 6,0 C 75 % 1021,9 hPa 0,0 l/m 0,0 km/h (0 Bft) O-NO 60 0 min 0 W/m
09.04.2017 03:38 6,1 C 76 % 1021,9 hPa 0,0 l/m 0,0 km/h (0 Bft) O-NO 60 0 min 0 W/m
09.04.2017 03:43 6,1 C 76 % 1021,9 hPa 0,0 l/m 0,0 km/h (0 Bft) O-NO 60 0 min 0 W/m
09.04.2017 03:48 6,0 C 75 % 1021,9 hPa 0,0 l/m 0,0 km/h (0 Bft) O-NO 60 0 min 0 W/m
09.04.2017 03:53 5,9 C 75 % 1021,9 hPa 0,0 l/m 0,0 km/h (0 Bft) O-NO 60 0 min 0 W/m
09.04.2017 03:58 5,6 C 75 % 1021,9 hPa 0,0 l/m 0,0 km/h (0 Bft) O-NO 60 0 min 0 W/m
09.04.2017 04:03 5,6 C 76 % 1021,9 hPa 0,0 l/m 0,0 km/h (0 Bft) O-NO 60 0 min 0 W/m
09.04.2017 04:08 5,7 C 77 % 1021,9 hPa 0,0 l/m 3,0 km/h (1 Bft) O-NO 60 0 min 0 W/m
09.04.2017 04:13 6,0 C 77 % 1021,9 hPa 0,0 l/m 0,7 km/h (0 Bft) O-NO 60 0 min 0 W/m
09.04.2017 04:18 6,1 C 77 % 1021,9 hPa 0,0 l/m 0,0 km/h (0 Bft) O-NO 60 0 min 0 W/m
09.04.2017 04:23 5,9 C 76 % 1021,9 hPa 0,0 l/m 0,0 km/h (0 Bft) O-NO 60 0 min 0 W/m
09.04.2017 04:28 5,9 C 77 % 1021,9 hPa 0,0 l/m 0,0 km/h (0 Bft) O-NO 60 0 min 0 W/m
09.04.2017 04:33 5,8 C 77 % 1021,9 hPa 0,0 l/m 0,0 km/h (0 Bft) O-NO 60 0 min 0 W/m
09.04.2017 04:38 5,7 C 77 % 1021,9 hPa 0,0 l/m 0,0 km/h (0 Bft) O-NO 65 0 min 0 W/m
09.04.2017 04:43 5,4 C 76 % 1021,9 hPa 0,0 l/m 0,0 km/h (0 Bft) O-NO 60 0 min 0 W/m
09.04.2017 04:48 5,2 C 76 % 1021,9 hPa 0,0 l/m 0,0 km/h (0 Bft) O-NO 65 0 min 0 W/m
09.04.2017 04:53 5,1 C 76 % 1021,9 hPa 0,0 l/m 0,0 km/h (0 Bft) O-NO 65 0 min 0 W/m
09.04.2017 04:58 4,8 C 77 % 1021,9 hPa 0,0 l/m 0,0 km/h (0 Bft) O-NO 65 0 min 0 W/m
09.04.2017 05:03 4,6 C 77 % 1021,9 hPa 0,0 l/m 0,0 km/h (0 Bft) O-NO 65 0 min 0 W/m
09.04.2017 05:08 4,5 C 77 % 1021,9 hPa 0,0 l/m 0,0 km/h (0 Bft) O-NO 65 0 min 0 W/m
09.04.2017 05:13 4,5 C 77 % 1021,9 hPa 0,0 l/m 0,0 km/h (0 Bft) O-NO 65 0 min 0 W/m
09.04.2017 05:18 4,4 C 78 % 1021,9 hPa 0,0 l/m 0,0 km/h (0 Bft) O-NO 65 0 min 0 W/m
09.04.2017 05:23 4,4 C 78 % 1021,9 hPa 0,0 l/m 0,0 km/h (0 Bft) O-NO 65 0 min 0 W/m
09.04.2017 05:28 4,3 C 78 % 1021,9 hPa 0,0 l/m 0,0 km/h (0 Bft) O-NO 65 0 min 0 W/m
09.04.2017 05:33 4,2 C 78 % 1021,9 hPa 0,0 l/m 0,0 km/h (0 Bft) O-NO 60 0 min 0 W/m
09.04.2017 05:38 4,1 C 78 % 1021,9 hPa 0,0 l/m 0,0 km/h (0 Bft) O-NO 60 0 min 0 W/m
09.04.2017 05:43 4,0 C 78 % 1021,9 hPa 0,0 l/m 0,0 km/h (0 Bft) O-NO 60 0 min 0 W/m
09.04.2017 05:48 3,9 C 78 % 1021,9 hPa 0,0 l/m 0,0 km/h (0 Bft) O-NO 60 0 min 0 W/m
09.04.2017 05:53 3,8 C 78 % 1021,9 hPa 0,0 l/m 0,0 km/h (0 Bft) O-NO 60 0 min 0 W/m
09.04.2017 05:58 3,8 C 78 % 1021,9 hPa 0,0 l/m 0,0 km/h (0 Bft) O-NO 60 0 min 0 W/m
09.04.2017 06:03 4,1 C 79 % 1021,9 hPa 0,0 l/m 0,0 km/h (0 Bft) O-NO 60 0 min 0 W/m
09.04.2017 06:08 4,1 C 79 % 1021,9 hPa 0,0 l/m 0,0 km/h (0 Bft) O-NO 60 0 min 0 W/m
09.04.2017 06:13 4,0 C 79 % 1021,9 hPa 0,0 l/m 0,0 km/h (0 Bft) O-NO 60 0 min 0 W/m
09.04.2017 06:18 3,9 C 79 % 1021,9 hPa 0,0 l/m 0,0 km/h (0 Bft) O-NO 60 0 min 0 W/m
09.04.2017 06:23 3,8 C 79 % 1021,9 hPa 0,0 l/m 0,0 km/h (0 Bft) O-NO 60 0 min 0 W/m
09.04.2017 06:28 3,7 C 79 % 1021,9 hPa 0,0 l/m 0,0 km/h (0 Bft) O-NO 60 0 min 0 W/m
09.04.2017 06:33 3,7 C 79 % 1021,9 hPa 0,0 l/m 0,0 km/h (0 Bft) O-NO 60 0 min 0 W/m
09.04.2017 06:38 3,9 C 80 % 1021,9 hPa 0,0 l/m 0,0 km/h (0 Bft) O-NO 60 0 min 0 W/m
09.04.2017 06:42 3,9 C 80 % 1021,9 hPa 0,0 l/m 0,0 km/h (0 Bft) O-NO 60 0 min 0 W/m
09.04.2017 06:48 3,9 C 80 % 1021,9 hPa 0,0 l/m 0,3 km/h (0 Bft) O-NO 70 0 min 0 W/m
09.04.2017 06:53 4,0 C 80 % 1021,9 hPa 0,0 l/m 0,0 km/h (0 Bft) O-NO 65 0 min 0 W/m
09.04.2017 06:58 3,9 C 80 % 1021,9 hPa 0,0 l/m 0,0 km/h (0 Bft) O-NO 70 0 min 0 W/m
09.04.2017 07:03 3,8 C 81 % 1021,9 hPa 0,0 l/m 0,1 km/h (0 Bft) O-NO 70 0 min 0 W/m
09.04.2017 07:08 3,9 C 81 % 1021,9 hPa 0,0 l/m 0,0 km/h (0 Bft) O-NO 70 0 min 0 W/m
09.04.2017 07:13 4,2 C 81 % 1021,9 hPa 0,0 l/m 0,4 km/h (0 Bft) O-NO 75 0 min 0 W/m
09.04.2017 07:18 4,3 C 81 % 1021,9 hPa 0,0 l/m 0,3 km/h (0 Bft) O-NO 75 0 min 0 W/m
09.04.2017 07:23 4,3 C 81 % 1021,9 hPa 0,0 l/m 0,0 km/h (0 Bft) O 80 0 min 0 W/m
09.04.2017 07:28 4,4 C 81 % 1021,9 hPa 0,0 l/m 0,0 km/h (0 Bft) O 80 0 min 0 W/m
09.04.2017 07:33 4,5 C 81 % 1022,9 hPa 0,0 l/m 0,0 km/h (0 Bft) O 80 0 min 0 W/m
09.04.2017 07:38 4,6 C 81 % 1022,9 hPa 0,0 l/m 0,0 km/h (0 Bft) O 80 0 min 0 W/m
09.04.2017 07:43 4,6 C 81 % 1022,9 hPa 0,0 l/m 0,0 km/h (0 Bft) O 80 0 min 0 W/m
09.04.2017 07:48 4,8 C 82 % 1021,9 hPa 0,0 l/m 0,0 km/h (0 Bft) O-NO 75 0 min 0 W/m
09.04.2017 07:53 4,8 C 82 % 1021,9 hPa 0,0 l/m 0,0 km/h (0 Bft) O-NO 75 0 min 0 W/m
09.04.2017 07:58 4,9 C 82 % 1021,9 hPa 0,0 l/m 0,1 km/h (0 Bft) O-NO 75 0 min 0 W/m
09.04.2017 08:03 5,2 C 82 % 1021,9 hPa 0,0 l/m 0,3 km/h (0 Bft) O 80 0 min 0 W/m
09.04.2017 08:08 5,3 C 82 % 1021,9 hPa 0,0 l/m 0,3 km/h (0 Bft) O 80 0 min 0 W/m
09.04.2017 08:13 5,3 C 82 % 1021,9 hPa 0,0 l/m 0,1 km/h (0 Bft) O 80 0 min 0 W/m
09.04.2017 08:18 5,4 C 82 % 1022,9 hPa 0,0 l/m 0,0 km/h (0 Bft) O 80 0 min 0 W/m
09.04.2017 08:23 5,5 C 82 % 1022,9 hPa 0,0 l/m 0,6 km/h (0 Bft) O22.5 85 0 min 0 W/m
09.04.2017 08:28 5,7 C 82 % 1022,9 hPa 0,0 l/m 0,0 km/h (0 Bft) O 85 0 min 0 W/m
09.04.2017 08:33 6,0 C 82 % 1022,9 hPa 0,0 l/m 0,0 km/h (0 Bft) O 80 0 min 0 W/m
09.04.2017 08:38 6,5 C 82 % 1022,9 hPa 0,0 l/m 0,0 km/h (0 Bft) O 80 0 min 0 W/m
09.04.2017 08:43 6,8 C 82 % 1022,9 hPa 0,0 l/m 0,0 km/h (0 Bft) O 80 0 min 0 W/m
09.04.2017 08:48 7,2 C 82 % 1022,9 hPa 0,0 l/m 0,0 km/h (0 Bft) O 80 0 min 0 W/m
09.04.2017 08:53 7,6 C 81 % 1022,9 hPa 0,0 l/m 0,1 km/h (0 Bft) O 85 0 min 0 W/m
09.04.2017 08:58 7,8 C 81 % 1022,8 hPa 0,0 l/m 0,1 km/h (0 Bft) O 85 0 min 0 W/m
09.04.2017 09:03 8,2 C 81 % 1022,8 hPa 0,0 l/m 0,3 km/h (0 Bft) O 85 0 min 0 W/m
09.04.2017 09:08 8,6 C 80 % 1022,8 hPa 0,0 l/m 5,4 km/h (2 Bft) O22.5 95 0 min 0 W/m
09.04.2017 09:13 9,0 C 79 % 1022,8 hPa 0,0 l/m 7,0 km/h (2 Bft) SO45 145 0 min 0 W/m
09.04.2017 09:18 9,1 C 79 % 1022,8 hPa 0,0 l/m 6,1 km/h (2 Bft) SO45 135 0 min 0 W/m
09.04.2017 09:23 9,5 C 78 % 1022,8 hPa 0,0 l/m 8,7 km/h (2 Bft) S-SO22.5 155 0 min 0 W/m
09.04.2017 09:28 9,7 C 77 % 1022,8 hPa 0,0 l/m 8,1 km/h (2 Bft) S22.5 170 0 min 0 W/m
09.04.2017 09:33 9,9 C 77 % 1022,8 hPa 0,0 l/m 8,9 km/h (2 Bft) S-SO22.5 165 0 min 0 W/m
09.04.2017 09:38 10,2 C 77 % 1022,8 hPa 0,0 l/m 8,1 km/h (2 Bft) S-SO22.5 160 0 min 0 W/m
09.04.2017 09:43 10,5 C 76 % 1022,8 hPa 0,0 l/m 9,2 km/h (2 Bft) SO22.5 145 0 min 0 W/m
09.04.2017 09:48 10,7 C 76 % 1022,8 hPa 0,0 l/m 9,3 km/h (2 Bft) S22.5 175 0 min 0 W/m
09.04.2017 09:53 11,2 C 75 % 1022,8 hPa 0,0 l/m 8,3 km/h (2 Bft) S22.5 170 0 min 0 W/m
09.04.2017 09:58 11,6 C 73 % 1022,8 hPa 0,0 l/m 10,1 km/h (2 Bft) S-SO45 155 0 min 0 W/m
09.04.2017 10:03 12,0 C 72 % 1022,8 hPa 0,0 l/m 4,6 km/h (1 Bft) SO22.5 140 0 min 0 W/m
09.04.2017 10:08 12,1 C 71 % 1022,8 hPa 0,0 l/m 11,8 km/h (2 Bft) S-SO22.5 165 0 min 0 W/m
09.04.2017 10:13 12,4 C 71 % 1022,8 hPa 0,0 l/m 9,7 km/h (2 Bft) S-SO22.5 160 0 min 0 W/m
09.04.2017 10:18 12,7 C 69 % 1022,8 hPa 0,0 l/m 10,8 km/h (2 Bft) S-SO22.5 165 0 min 0 W/m
09.04.2017 10:23 12,8 C 69 % 1022,8 hPa 0,0 l/m 11,8 km/h (2 Bft) S-SO45 160 0 min 0 W/m
09.04.2017 10:28 12,9 C 68 % 1022,8 hPa 0,0 l/m 13,6 km/h (3 Bft) S-SO22.5 165 0 min 0 W/m
09.04.2017 10:33 13,2 C 68 % 1022,8 hPa 0,0 l/m 10,8 km/h (2 Bft) S-SO22.5 160 0 min 0 W/m
09.04.2017 10:38 13,2 C 67 % 1022,8 hPa 0,0 l/m 9,3 km/h (2 Bft) S45 180 0 min 0 W/m
09.04.2017 10:43 13,5 C 67 % 1022,8 hPa 0,0 l/m 11,5 km/h (2 Bft) S22.5 175 0 min 0 W/m
09.04.2017 10:48 13,8 C 66 % 1022,8 hPa 0,0 l/m 7,9 km/h (2 Bft) S22.5 170 0 min 0 W/m
09.04.2017 10:53 14,0 C 66 % 1022,8 hPa 0,0 l/m 9,3 km/h (2 Bft) S22.5 170 0 min 0 W/m
09.04.2017 10:58 14,3 C 66 % 1022,8 hPa 0,0 l/m 8,2 km/h (2 Bft) S-SW22.5 195 0 min 0 W/m
09.04.2017 11:03 14,4 C 64 % 1022,8 hPa 0,0 l/m 11,1 km/h (2 Bft) S22.5 190 0 min 0 W/m
09.04.2017 11:08 14,6 C 65 % 1022,8 hPa 0,0 l/m 7,3 km/h (2 Bft) S-SO22.5 155 0 min 0 W/m
09.04.2017 11:13 14,8 C 65 % 1022,8 hPa 0,0 l/m 8,6 km/h (2 Bft) S-SO22.5 155 0 min 0 W/m
09.04.2017 11:18 15,0 C 63 % 1022,8 hPa 0,0 l/m 9,2 km/h (2 Bft) S22.5 175 0 min 0 W/m
09.04.2017 11:23 15,1 C 62 % 1022,8 hPa 0,0 l/m 11,0 km/h (2 Bft) S22.5 190 0 min 0 W/m
09.04.2017 11:28 15,3 C 63 % 1022,7 hPa 0,0 l/m 8,1 km/h (2 Bft) S22.5 170 0 min 0 W/m
09.04.2017 11:33 15,6 C 61 % 1022,7 hPa 0,0 l/m 12,0 km/h (2 Bft) S22.5 170 0 min 0 W/m
09.04.2017 11:38 15,8 C 60 % 1022,7 hPa 0,0 l/m 7,4 km/h (2 Bft) S-SO45 150 0 min 0 W/m
09.04.2017 11:43 15,9 C 60 % 1022,7 hPa 0,0 l/m 10,5 km/h (2 Bft) S-SO22.5 165 0 min 0 W/m
09.04.2017 11:48 16,1 C 59 % 1022,7 hPa 0,0 l/m 13,1 km/h (3 Bft) S-SO22.5 150 0 min 0 W/m
09.04.2017 11:53 16,3 C 59 % 1022,7 hPa 0,0 l/m 9,4 km/h (2 Bft) SO22.5 140 0 min 0 W/m
09.04.2017 11:58 16,6 C 59 % 1022,7 hPa 0,0 l/m 10,5 km/h (2 Bft) S45 180 0 min 0 W/m
09.04.2017 12:03 16,8 C 57 % 1022,7 hPa 0,0 l/m 9,9 km/h (2 Bft) S67.5 180 0 min 0 W/m
09.04.2017 12:08 16,7 C 58 % 1022,7 hPa 0,0 l/m 11,3 km/h (2 Bft) S45 185 0 min 0 W/m
09.04.2017 12:13 16,8 C 58 % 1022,7 hPa 0,0 l/m 9,5 km/h (2 Bft) S-SW22.5 200 0 min 0 W/m
09.04.2017 12:18 17,0 C 58 % 1022,7 hPa 0,0 l/m 9,9 km/h (2 Bft) S22.5 170 0 min 0 W/m
09.04.2017 12:23 17,4 C 57 % 1022,7 hPa 0,0 l/m 12,0 km/h (2 Bft) S-SO45 160 0 min 0 W/m
09.04.2017 12:28 17,6 C 57 % 1022,7 hPa 0,0 l/m 9,1 km/h (2 Bft) S-SO22.5 160 0 min 0 W/m
09.04.2017 12:33 17,7 C 56 % 1021,7 hPa 0,0 l/m 10,7 km/h (2 Bft) S-SO22.5 155 0 min 0 W/m
09.04.2017 12:38 17,9 C 57 % 1021,7 hPa 0,0 l/m 10,8 km/h (2 Bft) S-SW45 195 0 min 0 W/m
09.04.2017 12:43 18,0 C 55 % 1021,7 hPa 0,0 l/m 9,6 km/h (2 Bft) S-SO22.5 160 0 min 0 W/m
09.04.2017 12:48 18,2 C 55 % 1021,7 hPa 0,0 l/m 10,1 km/h (2 Bft) S-SO45 150 0 min 0 W/m
09.04.2017 12:53 18,3 C 56 % 1021,7 hPa 0,0 l/m 7,9 km/h (2 Bft) S 180 0 min 0 W/m
09.04.2017 12:58 18,3 C 56 % 1021,7 hPa 0,0 l/m 12,1 km/h (2 Bft) S-SW22.5 210 0 min 0 W/m
09.04.2017 13:03 18,5 C 54 % 1021,7 hPa 0,0 l/m 10,0 km/h (2 Bft) S-SW22.5 205 0 min 0 W/m
09.04.2017 13:08 18,1 C 54 % 1021,7 hPa 0,0 l/m 7,0 km/h (2 Bft) W-SW22.5 255 0 min 0 W/m
09.04.2017 13:13 18,3 C 57 % 1021,7 hPa 0,0 l/m 4,5 km/h (1 Bft) W-SW22.5 250 0 min 0 W/m
09.04.2017 13:18 19,1 C 54 % 1021,7 hPa 0,0 l/m 7,2 km/h (2 Bft) S-SW45 200 0 min 0 W/m
09.04.2017 13:23 19,5 C 53 % 1021,7 hPa 0,0 l/m 10,1 km/h (2 Bft) S22.5 190 0 min 0 W/m
09.04.2017 13:28 19,6 C 50 % 1021,7 hPa 0,0 l/m 5,2 km/h (1 Bft) S 190 0 min 0 W/m
09.04.2017 13:33 19,6 C 52 % 1021,7 hPa 0,0 l/m 9,1 km/h (2 Bft) S-SO22.5 150 0 min 0 W/m
09.04.2017 13:38 19,8 C 52 % 1021,7 hPa 0,0 l/m 7,5 km/h (2 Bft) S22.5 175 0 min 0 W/m
09.04.2017 13:43 19,8 C 47 % 1021,7 hPa 0,0 l/m 5,9 km/h (2 Bft) S-SW 195 0 min 0 W/m
09.04.2017 13:48 19,3 C 44 % 1021,7 hPa 0,0 l/m 10,6 km/h (2 Bft) S-SW22.5 210 0 min 0 W/m
09.04.2017 13:53 19,3 C 47 % 1021,7 hPa 0,0 l/m 7,9 km/h (2 Bft) W-SW22.5 240 0 min 0 W/m
09.04.2017 13:58 20,3 C 49 % 1021,7 hPa 0,0 l/m 8,5 km/h (2 Bft) SW45 220 0 min 0 W/m
09.04.2017 14:03 20,4 C 47 % 1021,7 hPa 0,0 l/m 12,7 km/h (3 Bft) S-SW45 205 0 min 0 W/m
09.04.2017 14:08 20,5 C 44 % 1021,7 hPa 0,0 l/m 10,6 km/h (2 Bft) SW45 230 0 min 0 W/m
09.04.2017 14:13 20,8 C 46 % 1021,7 hPa 0,0 l/m 6,6 km/h (2 Bft) S 180 0 min 0 W/m
09.04.2017 14:18 20,9 C 46 % 1021,7 hPa 0,0 l/m 13,3 km/h (3 Bft) S-SW22.5 200 0 min 0 W/m
09.04.2017 14:22 20,3 C 45 % 1021,7 hPa 0,0 l/m 15,9 km/h (3 Bft) W-SW45 255 0 min 0 W/m
09.04.2017 14:28 20,2 C 47 % 1021,7 hPa 0,0 l/m 13,5 km/h (3 Bft) SW22.5 230 0 min 0 W/m
09.04.2017 14:33 20,2 C 44 % 1021,7 hPa 0,0 l/m 7,4 km/h (2 Bft) W-SW 240 0 min 0 W/m
09.04.2017 14:38 20,9 C 47 % 1021,7 hPa 0,0 l/m 13,0 km/h (3 Bft) SW45 220 0 min 0 W/m
09.04.2017 14:43 21,1 C 44 % 1021,7 hPa 0,0 l/m 13,4 km/h (3 Bft) SW45 225 0 min 0 W/m
09.04.2017 14:48 20,8 C 41 % 1021,7 hPa 0,0 l/m 11,6 km/h (2 Bft) SW22.5 230 0 min 0 W/m
09.04.2017 14:53 20,8 C 41 % 1021,7 hPa 0,0 l/m 12,8 km/h (3 Bft) S-SW22.5 200 0 min 0 W/m
09.04.2017 14:58 21,6 C 41 % 1020,7 hPa 0,0 l/m 9,2 km/h (2 Bft) S22.5 185 0 min 0 W/m
09.04.2017 15:03 21,4 C 41 % 1020,7 hPa 0,0 l/m 8,9 km/h (2 Bft) SW45 215 0 min 0 W/m
09.04.2017 15:08 21,2 C 45 % 1020,7 hPa 0,0 l/m 10,6 km/h (2 Bft) SW22.5 230 0 min 0 W/m
09.04.2017 15:13 21,6 C 41 % 1020,7 hPa 0,0 l/m 11,8 km/h (2 Bft) SW22.5 230 0 min 0 W/m
09.04.2017 15:18 21,7 C 39 % 1020,7 hPa 0,0 l/m 3,8 km/h (1 Bft) S-SW 210 0 min 0 W/m
09.04.2017 15:23 22,0 C 40 % 1020,7 hPa 0,0 l/m 9,3 km/h (2 Bft) S22.5 185 0 min 0 W/m
09.04.2017 15:28 22,2 C 39 % 1020,7 hPa 0,0 l/m 8,0 km/h (2 Bft) S 185 0 min 0 W/m
09.04.2017 15:33 21,8 C 40 % 1020,7 hPa 0,0 l/m 4,5 km/h (1 Bft) S 185 0 min 0 W/m
09.04.2017 15:38 22,1 C 40 % 1020,7 hPa 0,0 l/m 9,9 km/h (2 Bft) S-SW45 200 0 min 0 W/m
09.04.2017 15:43 21,8 C 39 % 1020,7 hPa 0,0 l/m 9,1 km/h (2 Bft) SW 235 0 min 0 W/m
09.04.2017 15:48 21,8 C 39 % 1020,7 hPa 0,0 l/m 11,1 km/h (2 Bft) SW22.5 225 0 min 0 W/m
09.04.2017 15:53 22,2 C 36 % 1020,7 hPa 0,0 l/m 7,4 km/h (2 Bft) SW 230 0 min 0 W/m
09.04.2017 15:58 22,5 C 36 % 1020,6 hPa 0,0 l/m 1,0 km/h (0 Bft) SW 230 0 min 0 W/m
09.04.2017 16:03 22,2 C 38 % 1020,7 hPa 0,0 l/m 9,4 km/h (2 Bft) S-SW22.5 205 0 min 0 W/m
09.04.2017 16:08 22,4 C 36 % 1020,7 hPa 0,0 l/m 7,6 km/h (2 Bft) S-SW22.5 205 0 min 0 W/m
09.04.2017 16:13 22,4 C 35 % 1019,6 hPa 0,0 l/m 4,0 km/h (1 Bft) S 180 0 min 0 W/m
09.04.2017 16:18 22,4 C 35 % 1019,6 hPa 0,0 l/m 5,7 km/h (2 Bft) S-SW 210 0 min 0 W/m
09.04.2017 16:23 22,4 C 35 % 1019,6 hPa 0,0 l/m 8,5 km/h (2 Bft) S-SW 210 0 min 0 W/m
09.04.2017 16:28 22,5 C 39 % 1019,6 hPa 0,0 l/m 7,4 km/h (2 Bft) SW22.5 220 0 min 0 W/m
09.04.2017 16:33 22,5 C 33 % 1019,6 hPa 0,0 l/m 10,0 km/h (2 Bft) SW22.5 230 0 min 0 W/m
09.04.2017 16:38 22,5 C 35 % 1019,6 hPa 0,0 l/m 10,6 km/h (2 Bft) SW22.5 235 0 min 0 W/m
09.04.2017 16:43 22,2 C 35 % 1019,7 hPa 0,0 l/m 8,6 km/h (2 Bft) SW22.5 215 0 min 0 W/m
09.04.2017 16:47 22,4 C 38 % 1019,6 hPa 0,0 l/m 12,0 km/h (2 Bft) SW22.5 235 0 min 0 W/m
09.04.2017 16:53 22,8 C 36 % 1019,6 hPa 0,0 l/m 8,3 km/h (2 Bft) S-SW22.5 205 0 min 0 W/m
09.04.2017 16:58 23,0 C 35 % 1019,6 hPa 0,0 l/m 9,6 km/h (2 Bft) S-SW 195 0 min 0 W/m
09.04.2017 17:03 22,7 C 35 % 1019,6 hPa 0,0 l/m 6,9 km/h (2 Bft) S-SW 195 0 min 0 W/m
09.04.2017 17:08 22,6 C 36 % 1019,6 hPa 0,0 l/m 8,4 km/h (2 Bft) SW22.5 230 0 min 0 W/m
09.04.2017 17:13 22,6 C 39 % 1019,6 hPa 0,0 l/m 8,4 km/h (2 Bft) SW22.5 230 0 min 0 W/m
09.04.2017 17:18 22,5 C 35 % 1019,6 hPa 0,0 l/m 7,8 km/h (2 Bft) SW22.5 215 0 min 0 W/m
09.04.2017 17:23 22,7 C 34 % 1019,6 hPa 0,0 l/m 7,0 km/h (2 Bft) S-SW 195 0 min 0 W/m
09.04.2017 17:28 22,7 C 34 % 1019,6 hPa 0,0 l/m 8,1 km/h (2 Bft) S 170 5 min 0 W/m
09.04.2017 17:33 22,4 C 34 % 1018,6 hPa 0,0 l/m 9,0 km/h (2 Bft) SW45 225 5 min 0 W/m
09.04.2017 17:38 22,2 C 36 % 1018,6 hPa 0,0 l/m 5,2 km/h (1 Bft) SW 235 5 min 0 W/m
09.04.2017 17:43 22,2 C 41 % 1018,6 hPa 0,0 l/m 5,9 km/h (2 Bft) SW 230 5 min 0 W/m
09.04.2017 17:47 22,1 C 38 % 1018,6 hPa 0,0 l/m 7,9 km/h (2 Bft) SW22.5 225 0 min 0 W/m
09.04.2017 17:53 22,2 C 34 % 1018,6 hPa 0,0 l/m 8,5 km/h (2 Bft) S 175 0 min 0 W/m
09.04.2017 17:58 22,8 C 33 % 1018,6 hPa 0,0 l/m 9,2 km/h (2 Bft) S-SW22.5 205 5 min 0 W/m
09.04.2017 18:03 23,0 C 34 % 1018,6 hPa 0,0 l/m 6,7 km/h (2 Bft) S 175 5 min 0 W/m
09.04.2017 18:08 23,0 C 33 % 1018,6 hPa 0,0 l/m 6,5 km/h (2 Bft) S 180 5 min 0 W/m
09.04.2017 18:13 22,9 C 32 % 1018,6 hPa 0,0 l/m 6,1 km/h (2 Bft) S 175 5 min 0 W/m
09.04.2017 18:18 23,1 C 32 % 1018,6 hPa 0,0 l/m 6,3 km/h (2 Bft) S 170 5 min 0 W/m
09.04.2017 18:23 23,4 C 33 % 1018,6 hPa 0,0 l/m 4,0 km/h (1 Bft) S-SO 160 5 min 0 W/m
09.04.2017 18:28 23,4 C 33 % 1018,6 hPa 0,0 l/m 6,1 km/h (2 Bft) S 170 0 min 0 W/m
09.04.2017 18:33 23,4 C 33 % 1018,6 hPa 0,0 l/m 7,2 km/h (2 Bft) S 170 0 min 0 W/m
09.04.2017 18:38 23,4 C 31 % 1018,6 hPa 0,0 l/m 7,4 km/h (2 Bft) S 170 0 min 0 W/m
09.04.2017 18:43 23,3 C 30 % 1018,6 hPa 0,0 l/m 3,7 km/h (1 Bft) S 175 5 min 0 W/m
09.04.2017 18:48 23,2 C 31 % 1018,6 hPa 0,0 l/m 7,0 km/h (2 Bft) S 170 5 min 0 W/m
09.04.2017 18:53 23,1 C 30 % 1018,6 hPa 0,0 l/m 3,3 km/h (1 Bft) S 170 5 min 0 W/m
09.04.2017 18:58 23,0 C 30 % 1018,6 hPa 0,0 l/m 5,6 km/h (2 Bft) S 170 5 min 0 W/m
09.04.2017 19:03 22,9 C 31 % 1018,6 hPa 0,0 l/m 5,4 km/h (2 Bft) S 170 5 min 0 W/m
09.04.2017 19:08 22,8 C 31 % 1017,6 hPa 0,0 l/m 5,1 km/h (1 Bft) S-SO 160 5 min 0 W/m
09.04.2017 19:13 22,6 C 31 % 1017,6 hPa 0,0 l/m 6,1 km/h (2 Bft) S-SO 160 5 min 0 W/m
09.04.2017 19:18 22,4 C 32 % 1017,6 hPa 0,0 l/m 6,1 km/h (2 Bft) S-SO 160 5 min 0 W/m
09.04.2017 19:23 22,2 C 32 % 1017,6 hPa 0,0 l/m 6,6 km/h (2 Bft) S-SO 160 5 min 0 W/m
09.04.2017 19:28 22,0 C 33 % 1017,6 hPa 0,0 l/m 5,5 km/h (2 Bft) S-SO 155 5 min 0 W/m
09.04.2017 19:33 21,9 C 33 % 1017,6 hPa 0,0 l/m 6,1 km/h (2 Bft) S-SO 160 5 min 0 W/m
09.04.2017 19:38 21,6 C 34 % 1017,7 hPa 0,0 l/m 2,7 km/h (1 Bft) S-SO 160 5 min 0 W/m
09.04.2017 19:43 21,4 C 34 % 1017,7 hPa 0,0 l/m 0,6 km/h (0 Bft) S-SO 160 0 min 0 W/m
09.04.2017 19:48 21,2 C 35 % 1017,7 hPa 0,0 l/m 0,0 km/h (0 Bft) S-SO 160 0 min 0 W/m
09.04.2017 19:53 21,0 C 35 % 1017,7 hPa 0,0 l/m 0,0 km/h (0 Bft) S-SO 160 0 min 0 W/m
09.04.2017 19:58 20,8 C 36 % 1017,7 hPa 0,0 l/m 0,0 km/h (0 Bft) S-SO 160 0 min 0 W/m
09.04.2017 20:03 20,2 C 36 % 1017,7 hPa 0,0 l/m 0,0 km/h (0 Bft) S-SO 160 0 min 0 W/m
09.04.2017 20:08 19,9 C 37 % 1017,7 hPa 0,0 l/m 3,6 km/h (1 Bft) S-SO 160 5 min 0 W/m
09.04.2017 20:13 19,8 C 37 % 1017,7 hPa 0,0 l/m 3,4 km/h (1 Bft) S-SO 160 0 min 0 W/m
09.04.2017 20:18 19,3 C 38 % 1017,7 hPa 0,0 l/m 0,0 km/h (0 Bft) S-SO 160 0 min 0 W/m
09.04.2017 20:23 19,0 C 39 % 1017,7 hPa 0,0 l/m 0,0 km/h (0 Bft) S-SO 160 0 min 0 W/m
09.04.2017 20:28 18,8 C 40 % 1017,7 hPa 0,0 l/m 0,1 km/h (0 Bft) S-SO 160 0 min 0 W/m
09.04.2017 20:33 18,5 C 40 % 1017,7 hPa 0,0 l/m 0,0 km/h (0 Bft) S-SO 160 0 min 0 W/m
09.04.2017 20:38 18,2 C 41 % 1017,7 hPa 0,0 l/m 0,7 km/h (0 Bft) S-SO 160 0 min 0 W/m
09.04.2017 20:43 18,0 C 42 % 1017,7 hPa 0,0 l/m 3,3 km/h (1 Bft) S-SO 160 0 min 0 W/m
09.04.2017 20:48 17,7 C 44 % 1017,7 hPa 0,0 l/m 0,3 km/h (0 Bft) S-SO 160 0 min 0 W/m
09.04.2017 20:53 17,6 C 44 % 1017,7 hPa 0,0 l/m 0,1 km/h (0 Bft) S-SO 160 0 min 0 W/m
09.04.2017 20:58 17,4 C 45 % 1017,7 hPa 0,0 l/m 3,7 km/h (1 Bft) S-SO 160 0 min 0 W/m
09.04.2017 21:03 17,2 C 46 % 1017,7 hPa 0,0 l/m 4,9 km/h (1 Bft) S-SO 160 0 min 0 W/m
09.04.2017 21:08 16,9 C 46 % 1017,7 hPa 0,0 l/m 5,9 km/h (2 Bft) S-SO 160 0 min 0 W/m
09.04.2017 21:13 16,7 C 47 % 1017,7 hPa 0,0 l/m 5,9 km/h (2 Bft) S-SO 160 0 min 0 W/m
09.04.2017 21:18 16,6 C 47 % 1017,7 hPa 0,0 l/m 6,0 km/h (2 Bft) S-SO 160 0 min 0 W/m
09.04.2017 21:23 16,4 C 48 % 1017,7 hPa 0,0 l/m 5,6 km/h (2 Bft) S-SO 160 0 min 0 W/m
09.04.2017 21:28 16,4 C 49 % 1017,7 hPa 0,0 l/m 5,7 km/h (2 Bft) S-SO 160 0 min 0 W/m
09.04.2017 21:33 16,3 C 49 % 1017,7 hPa 0,0 l/m 5,6 km/h (2 Bft) S-SO 160 0 min 0 W/m
09.04.2017 21:38 16,0 C 50 % 1017,7 hPa 0,0 l/m 6,7 km/h (2 Bft) S-SO 155 0 min 0 W/m
09.04.2017 21:43 15,7 C 52 % 1017,7 hPa 0,0 l/m 6,7 km/h (2 Bft) S-SO 150 0 min 0 W/m
09.04.2017 21:48 15,7 C 52 % 1017,7 hPa 0,0 l/m 7,2 km/h (2 Bft) S-SO 150 0 min 0 W/m
09.04.2017 21:53 15,6 C 53 % 1017,7 hPa 0,0 l/m 7,9 km/h (2 Bft) SO 145 0 min 0 W/m
09.04.2017 21:58 15,6 C 53 % 1017,7 hPa 0,0 l/m 6,8 km/h (2 Bft) SO 140 0 min 0 W/m
09.04.2017 22:03 15,2 C 54 % 1017,7 hPa 0,0 l/m 12,0 km/h (2 Bft) SO 140 0 min 0 W/m
09.04.2017 22:08 15,1 C 54 % 1017,7 hPa 0,0 l/m 5,5 km/h (2 Bft) SO 140 0 min 0 W/m
09.04.2017 22:13 15,0 C 54 % 1017,7 hPa 0,0 l/m 4,5 km/h (1 Bft) SO 140 0 min 0 W/m
09.04.2017 22:18 15,0 C 55 % 1017,7 hPa 0,0 l/m 0,0 km/h (0 Bft) SO 140 0 min 0 W/m
09.04.2017 22:23 14,8 C 55 % 1017,7 hPa 0,0 l/m 0,0 km/h (0 Bft) SO 140 0 min 0 W/m
09.04.2017 22:28 14,7 C 56 % 1017,7 hPa 0,0 l/m 6,8 km/h (2 Bft) SO 140 0 min 0 W/m
09.04.2017 22:33 14,5 C 56 % 1017,7 hPa 0,0 l/m 0,1 km/h (0 Bft) SO 140 0 min 0 W/m
09.04.2017 22:38 14,5 C 56 % 1017,7 hPa 0,0 l/m 5,3 km/h (1 Bft) SO 135 0 min 0 W/m
09.04.2017 22:43 14,3 C 57 % 1017,7 hPa 0,0 l/m 0,7 km/h (0 Bft) SO 135 0 min 0 W/m
09.04.2017 22:48 14,0 C 58 % 1017,7 hPa 0,0 l/m 0,0 km/h (0 Bft) SO 135 0 min 0 W/m
09.04.2017 22:53 13,6 C 58 % 1017,8 hPa 0,0 l/m 0,0 km/h (0 Bft) SO 135 0 min 0 W/m
09.04.2017 22:58 13,4 C 58 % 1017,8 hPa 0,0 l/m 0,0 km/h (0 Bft) SO 140 0 min 0 W/m
09.04.2017 23:03 13,2 C 59 % 1017,8 hPa 0,0 l/m 4,6 km/h (1 Bft) SO 140 0 min 0 W/m
09.04.2017 23:08 13,2 C 60 % 1017,8 hPa 0,0 l/m 4,4 km/h (1 Bft) SO 140 0 min 0 W/m
09.04.2017 23:13 13,2 C 60 % 1017,8 hPa 0,0 l/m 0,0 km/h (0 Bft) SO 140 0 min 0 W/m
09.04.2017 23:18 13,2 C 60 % 1017,8 hPa 0,0 l/m 0,6 km/h (0 Bft) SO 135 0 min 0 W/m
09.04.2017 23:23 13,1 C 60 % 1017,8 hPa 0,0 l/m 4,1 km/h (1 Bft) SO 135 0 min 0 W/m
09.04.2017 23:28 13,1 C 60 % 1017,8 hPa 0,0 l/m 5,0 km/h (1 Bft) SO 140 0 min 0 W/m
09.04.2017 23:33 12,9 C 62 % 1017,8 hPa 0,0 l/m 0,7 km/h (0 Bft) SO 140 0 min 0 W/m
09.04.2017 23:38 12,8 C 62 % 1017,8 hPa 0,0 l/m 4,6 km/h (1 Bft) SO 140 0 min 0 W/m
09.04.2017 23:43 12,8 C 62 % 1016,8 hPa 0,0 l/m 2,5 km/h (1 Bft) SO 135 0 min 0 W/m
09.04.2017 23:48 12,8 C 63 % 1016,8 hPa 0,0 l/m 0,3 km/h (0 Bft) SO 135 0 min 0 W/m
09.04.2017 23:53 12,6 C 63 % 1016,8 hPa 0,0 l/m 0,0 km/h (0 Bft) SO 140 0 min 0 W/m
09.04.2017 23:58 12,5 C 63 % 1016,8 hPa 0,0 l/m 0,0 km/h (0 Bft) SO 140 0 min 0 W/m
_ Min-Zeit 06:28 18:43 23:43 - 02:07 - - - -
Minimum _ 3,7 C 30 % 1016,8 hPa - 0,0 km/h (0 Bft) - - - -
_ Max-Zeit 18:23 07:48 07:33 00:02 14:22 - - 17:28 00:02
Maximum _ 23,4 C 82 % 1022,9 hPa 0,0 l/m 15,9 km/h
W-SW (3 Bft)
- - 5 min 0 W/m
Durchschnitt _ 13,6 C 59 % 1020,9 hPa #0,0 l/m 5,1 km/h (1 Bft) S-SO - #1:55 h 0 W/m